Flag for Germany Weather past 2 weeks in Leer, Lower Saxony, Germany

Now
70 °F

Passing clouds.


Feels Like: 70 °F
Forecast: 49 / 72 °F
Wind: 6 mph from West

Location: Emden-Koenigspolder

Current Time: Aug 28, 2015 at 4:52:23 PM

Latest Report: Aug 28, 2015 at 4:00 PM


Visibility: 11 mi

Pressure: 30.03 "Hg

Humidity: 54%

Dew point: 53 °F

Location of LeerLocation

Historic Weather in Leer — Graph

°F

Leer temperature yesterday

Maximum temperature yesterday: 64 °F (at 7:00 AM)
Minimum temperature yesterday: 59 °F (at 10:00 PM)
Average temperature yesterday: 62 °F

Past Weeks' High & Low Weather Summary

 TemperatureHumidityPressure
High78 °F (Aug 14, 4:00 PM)100% (Aug 18, 6:00 AM)30.25 "Hg (Aug 18, 6:00 AM)
Low52 °F (Aug 23, 6:00 AM)40% (Aug 22, 2:00 PM)29.47 "Hg (Aug 24, 6:00 PM)
Average65 °F81%29.91 "Hg
* Reported Aug 13 3:00 PM — Aug 28 3:00 PM, Leer, Weather by CustomWeather, © 2015

Note: Actual official high and low records may vary slightly from our data, if they occured in-between our weather recording intervals... More about our weather records

Advertising

Leer weather history for previous 24 hours

 ConditionsComfort  
Time TempWeatherWind HumidityBarometerVisibility
3:00 PM
Fri, Aug 28
69 °FPassing clouds.6 mph56%30.01 "Hg9 mi
2:00 PM67 °FPartly sunny.5 mph65%30.01 "Hg9 mi
1:00 PM67 °FPartly sunny.6 mph71%30.00 "Hg12 mi
12:00 PM63 °FOvercast.5 mph79%29.99 "Hg9 mi
11:00 AMN/APassing clouds.6 mphN/AN/A1 mi
10:00 AM60 °FLow clouds.5 mph88%29.96 "Hg6 mi
9:00 AM59 °FLow clouds.6 mph92%29.94 "Hg6 mi
8:00 AM58 °FFog.6 mph94%29.93 "Hg4 mi
7:00 AM57 °FFog.6 mph95%29.90 "Hg3 mi
6:00 AM57 °FFog.5 mph97%29.89 "Hg3 mi
5:00 AM57 °FFog.5 mph96%29.88 "Hg3 mi
4:00 AM57 °FFog.5 mph95%29.86 "Hg4 mi
3:00 AM57 °FPassing clouds.5 mph94%29.85 "Hg5 mi
2:00 AM57 °FClear.5 mph92%29.84 "Hg7 mi
1:00 AM58 °FPassing clouds.6 mph90%29.83 "Hg11 mi
10:00 PM
Thu, Aug 27
59 °FOvercast.6 mph85%29.79 "Hg28 mi
9:00 PM60 °FOvercast.7 mph88%29.78 "Hg28 mi
8:00 PM60 °FDrizzle. Low clouds.6 mph90%29.78 "Hg25 mi
7:00 PM61 °FOvercast.8 mph83%29.78 "Hg28 mi
6:00 PM61 °FOvercast.7 mph86%29.78 "Hg28 mi
4:00 PM62 °FLight rain. Overcast.8 mph86%29.78 "Hg11 mi
Weather by CustomWeather, © 2015

See weather overviewHow to use our weather pages